Powrót do katalogu

STARLINK-4096

AktywnyŁącznośćVLEO
NORAD 53160·PAYLOAD·🇺🇸 United States

Wystrzelony Jul 17, 2022 z Cape Canaveral Space Force Station

Loading…

Następne Przeloty (najbliższe 24 godziny)

TLE

ŚwieżeSource: CelesTrak SupGP

Epoka: Sep 14, 2026, 21:52 UTC

1 53160C 22083AE  26257.91159722 -.00050414  00000+0 -14894-2 0  2578
2 53160  53.1594  29.5000 0001290  73.4731 160.6892 15.34417753    10

Śledź STARLINK-4096 w czasie rzeczywistym z AllMySat

Download on the App Store